Hourly Weather Melbourne

Today, 19 September, Saturday

Time Temperature Precipitation Wind Pressure Humidity
00:00 +15°C° 0 mm 1 mps 766 mmHg 89%
01:00 +15°C° 0 mm 1 mps 765 mmHg 91%
02:00 +15°C° 0 mm 1 mps 765 mmHg 91%
03:00 +15°C° 0 mm 1 mps 765 mmHg 92%
04:00 +15°C° 0 mm 2 mps 764 mmHg 91%
05:00 +16°C° 0 mm 2 mps 764 mmHg 89%
06:00 +16°C° 0 mm 2 mps 764 mmHg 87%
07:00 +16°C° 0 mm 2 mps 764 mmHg 85%
08:00 +19°C° 0 mm 3 mps 764 mmHg 75%
09:00 +21°C° 0 mm 4 mps 764 mmHg 65%
10:00 +23°C° 0 mm 5 mps 763 mmHg 53%
11:00 +25°C° 0.1 mm 5 mps 762 mmHg 52%
12:00 +26°C° 0.1 mm 5 mps 762 mmHg 51%
13:00 +26°C° 0.1 mm 5 mps 761 mmHg 50%
14:00 +26°C° 0 mm 5 mps 760 mmHg 53%
15:00 +25°C° 0 mm 5 mps 760 mmHg 55%
16:00 +25°C° 0 mm 5 mps 759 mmHg 58%
17:00 +23°C° 0.1 mm 5 mps 759 mmHg 63%
18:00 +21°C° 0.1 mm 4 mps 759 mmHg 68%
19:00 +20°C° 0.1 mm 4 mps 758 mmHg 73%
20:00 +20°C° 0 mm 4 mps 758 mmHg 72%
21:00 +20°C° 0 mm 4 mps 758 mmHg 70%
22:00 +19°C° 0 mm 4 mps 758 mmHg 69%
23:00 +19°C° 0 mm 4 mps 757 mmHg 70%

Tomorrow, 20 September, Sunday

Time Temperature Precipitation Wind Pressure Humidity
00:00 +19°C° 0 mm 4 mps 756 mmHg 72%
01:00 +18°C° 0 mm 4 mps 755 mmHg 73%
02:00 +18°C° 0.1 mm 4 mps 754 mmHg 76%
03:00 +17°C° 0.1 mm 5 mps 754 mmHg 79%
04:00 +16°C° 0.1 mm 6 mps 753 mmHg 83%
05:00 +16°C° 0.1 mm 5 mps 753 mmHg 83%
06:00 +17°C° 0.1 mm 4 mps 753 mmHg 84%
07:00 +17°C° 0.1 mm 3 mps 753 mmHg 85%
08:00 +18°C° 0.1 mm 4 mps 753 mmHg 79%
09:00 +19°C° 0.1 mm 5 mps 753 mmHg 73%
10:00 +20°C° 0.1 mm 6 mps 753 mmHg 67%
11:00 +21°C° 0 mm 6 mps 753 mmHg 63%
12:00 +22°C° 0 mm 6 mps 753 mmHg 58%
13:00 +23°C° 0 mm 6 mps 752 mmHg 54%
14:00 +23°C° 0 mm 6 mps 752 mmHg 54%
15:00 +23°C° 0 mm 6 mps 752 mmHg 55%
16:00 +23°C° 0 mm 6 mps 751 mmHg 55%
17:00 +22°C° 0 mm 5 mps 751 mmHg 58%
18:00 +21°C° 0 mm 5 mps 752 mmHg 61%
19:00 +20°C° 0 mm 4 mps 752 mmHg 64%
20:00 +20°C° 0 mm 5 mps 752 mmHg 62%
21:00 +20°C° 0 mm 5 mps 752 mmHg 60%
22:00 +20°C° 0 mm 6 mps 752 mmHg 59%
23:00 +20°C° 0 mm 6 mps 751 mmHg 59%

Day after tomorrow, 21 September, Monday

Time Temperature Precipitation Wind Pressure Humidity
00:00 +20°C° 0 mm 7 mps 751 mmHg 60%
01:00 +20°C° 0 mm 7 mps 750 mmHg 60%
02:00 +19°C° 0.2 mm 6 mps 751 mmHg 64%
03:00 +17°C° 0.2 mm 5 mps 751 mmHg 68%
04:00 +17°C° 0.2 mm 5 mps 751 mmHg 72%
05:00 +17°C° 0.1 mm 4 mps 751 mmHg 71%
06:00 +17°C° 0.1 mm 3 mps 752 mmHg 71%
07:00 +16°C° 0.1 mm 3 mps 753 mmHg 71%
08:00 +17°C° 0 mm 3 mps 752 mmHg 64%
09:00 +18°C° 0 mm 3 mps 752 mmHg 58%
10:00 +20°C° 0 mm 3 mps 751 mmHg 52%
11:00 +20°C° 0 mm 5 mps 751 mmHg 48%
12:00 +20°C° 0 mm 6 mps 751 mmHg 45%
13:00 +20°C° 0 mm 7 mps 751 mmHg 41%
14:00 +20°C° 0 mm 7 mps 750 mmHg 41%
15:00 +20°C° 0 mm 7 mps 750 mmHg 41%
16:00 +20°C° 0 mm 6 mps 750 mmHg 41%
17:00 +17°C° 0 mm 6 mps 750 mmHg 43%
18:00 +16°C° 0 mm 5 mps 751 mmHg 45%
19:00 +15°C° 0 mm 4 mps 751 mmHg 47%
20:00 +14°C° 0 mm 4 mps 751 mmHg 50%
21:00 +14°C° 0 mm 4 mps 751 mmHg 52%
22:00 +13°C° 0 mm 4 mps 752 mmHg 54%
23:00 +13°C° 0 mm 4 mps 752 mmHg 57%

22 September, Tuesday

Time Temperature Precipitation Wind Pressure Humidity
00:00 +12°C° 0 mm 4 mps 751 mmHg 60%
01:00 +12°C° 0 mm 5 mps 751 mmHg 63%
02:00 +12°C° 0 mm 5 mps 751 mmHg 63%
03:00 +12°C° 0 mm 5 mps 751 mmHg 63%
04:00 +12°C° 0 mm 5 mps 751 mmHg 63%
05:00 +11°C° 0 mm 6 mps 751 mmHg 64%
06:00 +11°C° 0 mm 6 mps 752 mmHg 64%
07:00 +11°C° 0 mm 6 mps 752 mmHg 64%
08:00 +11°C° 0 mm 7 mps 752 mmHg 63%
09:00 +11°C° 0 mm 7 mps 752 mmHg 63%
10:00 +11°C° 0 mm 8 mps 752 mmHg 62%
11:00 +12°C° 0.1 mm 8 mps 752 mmHg 60%
12:00 +13°C° 0.1 mm 8 mps 753 mmHg 58%
13:00 +15°C° 0.1 mm 7 mps 753 mmHg 55%
14:00 +15°C° 0.1 mm 6 mps 753 mmHg 54%
15:00 +16°C° 0.1 mm 5 mps 753 mmHg 53%
16:00 +17°C° 0.1 mm 4 mps 753 mmHg 52%
17:00 +15°C° 0.1 mm 4 mps 754 mmHg 53%
18:00 +15°C° 0.1 mm 5 mps 754 mmHg 55%
19:00 +14°C° 0.1 mm 5 mps 755 mmHg 57%
20:00 +13°C° 0.2 mm 5 mps 755 mmHg 62%
21:00 +12°C° 0.2 mm 5 mps 756 mmHg 67%
22:00 +11°C° 0.2 mm 6 mps 756 mmHg 71%
23:00 +10°C° 0.1 mm 6 mps 756 mmHg 72%

23 September, Wednesday

Time Temperature Precipitation Wind Pressure Humidity
00:00 +10°C° 0.1 mm 6 mps 756 mmHg 73%
01:00 +10°C° 0.1 mm 6 mps 756 mmHg 74%
02:00 +10°C° 0.1 mm 5 mps 756 mmHg 74%
03:00 +9°C° 0.1 mm 5 mps 756 mmHg 75%
04:00 +9°C° 0.1 mm 5 mps 756 mmHg 76%
05:00 +9°C° 0 mm 5 mps 756 mmHg 75%
06:00 +9°C° 0 mm 5 mps 757 mmHg 75%
07:00 +8°C° 0 mm 5 mps 757 mmHg 74%
08:00 +10°C° 0 mm 6 mps 757 mmHg 69%
09:00 +11°C° 0 mm 6 mps 758 mmHg 64%
10:00 +12°C° 0 mm 7 mps 758 mmHg 59%
11:00 +11°C° 0.2 mm 6 mps 758 mmHg 64%
12:00 +11°C° 0.2 mm 6 mps 758 mmHg 69%
13:00 +12°C° 0.2 mm 5 mps 758 mmHg 74%
14:00 +12°C° 0.4 mm 5 mps 758 mmHg 74%
15:00 +12°C° 0.4 mm 5 mps 758 mmHg 74%
16:00 +12°C° 0.4 mm 4 mps 758 mmHg 74%
17:00 +11°C° 0.2 mm 4 mps 759 mmHg 74%
18:00 +10°C° 0.2 mm 5 mps 760 mmHg 74%
19:00 +9°C° 0.2 mm 5 mps 760 mmHg 74%
20:00 +9°C° 0.1 mm 5 mps 761 mmHg 74%
21:00 +8°C° 0.1 mm 5 mps 761 mmHg 75%
22:00 +7°C° 0.1 mm 5 mps 762 mmHg 75%
23:00 +7°C° 0 mm 5 mps 762 mmHg 75%

24 September, Thursday

Time Temperature Precipitation Wind Pressure Humidity
00:00 +7°C° 0 mm 4 mps 762 mmHg 74%
01:00 +7°C° 0 mm 4 mps 762 mmHg 73%
02:00 +7°C° 0.1 mm 4 mps 762 mmHg 73%
03:00 +7°C° 0.1 mm 4 mps 762 mmHg 73%
04:00 +7°C° 0.1 mm 4 mps 762 mmHg 72%
05:00 +7°C° 0.1 mm 4 mps 762 mmHg 73%
06:00 +7°C° 0.1 mm 4 mps 762 mmHg 74%
07:00 +7°C° 0.1 mm 4 mps 763 mmHg 74%
08:00 +8°C° 0 mm 4 mps 763 mmHg 68%
09:00 +10°C° 0 mm 4 mps 763 mmHg 62%
10:00 +11°C° 0 mm 4 mps 763 mmHg 56%
11:00 +11°C° 0 mm 4 mps 763 mmHg 54%
12:00 +12°C° 0 mm 3 mps 762 mmHg 52%
13:00 +12°C° 0 mm 3 mps 762 mmHg 50%
14:00 +12°C° 0 mm 3 mps 762 mmHg 51%
15:00 +12°C° 0 mm 3 mps 761 mmHg 53%
16:00 +12°C° 0 mm 3 mps 760 mmHg 54%
17:00 +11°C° 0 mm 3 mps 760 mmHg 56%
18:00 +10°C° 0 mm 3 mps 760 mmHg 58%
19:00 +10°C° 0 mm 3 mps 761 mmHg 60%
20:00 +10°C° 0 mm 3 mps 761 mmHg 61%
21:00 +8°C° 0 mm 4 mps 760 mmHg 63%
22:00 +8°C° 0 mm 5 mps 760 mmHg 64%
23:00 +8°C° 0 mm 5 mps 760 mmHg 64%
Show more